Weather History for KLWA - July, 2013

Change the Weather History Date:

Wednesday, July 10, 2013

  Actual Average (KBIV) Record (KBIV)
Temperature  
Mean Temperature 70 °F 72 °F  
Max Temperature 80 °F 82 °F - ()
Min Temperature 59 °F 63 °F - ()
Degree Days  
Heating Degree Days 0 0  
Month to date heating degree days 0  
Since 1 June heating degree days 48  
Since 1 July heating degree days 0  
Cooling Degree Days 5 8  
Month to date cooling degree days 74  
Year to date cooling degree days 262  
Since 1 June cooling degree days 220  
Growing Degree Days 20 (Base 50)    
Moisture  
Dew Point 66 °F    
Average Humidity 77    
Maximum Humidity 94    
Minimum Humidity 56    
Precipitation  
Precipitation 0.00 in 0.09 in - ()
Month to date precipitation 0.97  
Year to date precipitation 17.78  
Sea Level Pressure  
Sea Level Pressure 29.90 in    
Wind  
Wind Speed 10 mph (WNW)    
Max Wind Speed 17 mph    
Max Gust Speed 25 mph    
Visibility 9 miles    
Events      
T = Trace of Precipitation, MM = Missing Value Source: NWS Daily Summary

Daily Weather History Graph

Daily Weather History Graph

Search for Another Location

Airport or City:

Trip Planner

Search our weather history database for the weather conditions in past years. The results will help you decide how hot, cold, wet, or windy it might be!

Date:

Astronomy

Jul. 10, 2013 Rise Set
Actual Time 6:17 AM EDT 9:22 PM EDT
Civil Twilight 5:43 AM EDT 9:56 PM EDT
Nautical Twilight 5:00 AM EDT 10:39 PM EDT
Astronomical Twilight 4:08 AM EDT 11:31 PM EDT
Moon 8:41 AM EDT (7/10) 10:27 PM EDT (7/10)
Length of Visible Light 16h 12m
Length of Day
15h 04m
Waxing Crescent, 5% of the Moon is Illuminated
Jul 10
Waxing Crescent
Jul 15
First Quarter
Jul 22
Full
Jul 29
Last Quarter
Aug 6
New

Hourly Weather History & Observations

Time (EDT) Temp. Heat Index Dew Point Humidity Pressure Visibility Wind Dir Wind Speed Gust Speed Precip Events Conditions
12:15 AM 80.6 °F 85.9 °F 74.7 °F 82% 29.88 in 10.0 mi WSW 12.7 mph 19.6 mph N/A   Mostly Cloudy
12:34 AM 80.2 °F 85.4 °F 74.8 °F 84% 29.88 in 10.0 mi SW 9.2 mph 19.6 mph N/A   Scattered Clouds
12:55 AM 79.9 °F - 74.5 °F 83% 29.88 in 10.0 mi WSW 13.8 mph 18.4 mph N/A   Clear
1:15 AM 79.5 °F - 74.3 °F 84% 29.87 in 10.0 mi SW 12.7 mph 17.3 mph N/A   Clear
1:34 AM 79.0 °F - 73.9 °F 84% 29.87 in 10.0 mi WSW 10.4 mph 16.1 mph N/A   Clear
1:55 AM 78.6 °F - 73.8 °F 85% 29.87 in 10.0 mi SW 10.4 mph 19.6 mph N/A   Clear
2:15 AM 78.3 °F - 73.9 °F 87% 29.86 in 10.0 mi SW 10.4 mph 17.3 mph N/A   Clear
2:35 AM 78.1 °F - 73.9 °F 87% 29.86 in 10.0 mi WSW 9.2 mph 16.1 mph N/A   Clear
2:55 AM 77.9 °F - 74.1 °F 88% 29.85 in 10.0 mi SW 10.4 mph - N/A   Clear
3:15 AM 77.9 °F - 73.9 °F 88% 29.85 in 10.0 mi SW 11.5 mph 17.3 mph N/A   Scattered Clouds
3:35 AM 77.9 °F - 74.3 °F 89% 29.85 in 10.0 mi WSW 10.4 mph 16.1 mph N/A   Mostly Cloudy
3:55 AM 77.9 °F - 74.3 °F 89% 29.85 in 10.0 mi WSW 10.4 mph - N/A   Scattered Clouds
4:15 AM 78.1 °F - 74.3 °F 88% 29.84 in 10.0 mi WSW 9.2 mph - N/A   Scattered Clouds
4:35 AM 78.3 °F - 74.3 °F 88% 29.84 in 10.0 mi WSW 11.5 mph 16.1 mph N/A   Mostly Cloudy
4:55 AM 78.1 °F - 74.3 °F 88% 29.84 in 10.0 mi WSW 9.2 mph - N/A   Mostly Cloudy
5:15 AM 77.9 °F - 74.3 °F 89% 29.84 in 10.0 mi WSW 9.2 mph - N/A   Mostly Cloudy
5:35 AM 77.4 °F - 73.6 °F 88% 29.85 in 10.0 mi WSW 10.4 mph 16.1 mph N/A   Mostly Cloudy
5:55 AM 75.7 °F - 72.9 °F 91% 29.85 in 7.0 mi West 5.8 mph - N/A   Scattered Clouds
6:15 AM 75.2 °F - 72.7 °F 92% 29.85 in 7.0 mi WSW 6.9 mph - N/A   Scattered Clouds
6:35 AM 75.2 °F - 72.9 °F 92% 29.85 in 5.0 mi WSW 8.1 mph - N/A   Scattered Clouds
6:55 AM 75.2 °F - 72.9 °F 92% 29.85 in 5.0 mi WSW 6.9 mph - N/A   Mostly Cloudy
7:15 AM 75.2 °F - 72.9 °F 92% 29.85 in 5.0 mi West 5.8 mph - N/A   Overcast
7:35 AM 75.2 °F - 72.7 °F 92% 29.85 in 4.0 mi WSW 5.8 mph - N/A   Mostly Cloudy
7:55 AM 75.6 °F - 73.0 °F 92% 29.85 in 5.0 mi West 3.5 mph - N/A   Mostly Cloudy
8:15 AM 76.5 °F - 73.2 °F 90% 29.84 in 5.0 mi West 4.6 mph - N/A   Scattered Clouds
8:35 AM 77.0 °F - 73.2 °F 88% 29.85 in 5.0 mi West 5.8 mph - N/A   Scattered Clouds
8:55 AM 77.4 °F - 73.2 °F 87% 29.85 in 7.0 mi West 6.9 mph - N/A   Scattered Clouds
9:15 AM 77.5 °F - 73.0 °F 86% 29.85 in 7.0 mi West 6.9 mph - N/A   Mostly Cloudy
9:35 AM 77.0 °F - 73.0 °F 88% 29.86 in 5.0 mi West 6.9 mph - N/A   Mostly Cloudy
9:55 AM 77.9 °F - 73.2 °F 85% 29.86 in 5.0 mi WNW 6.9 mph 17.3 mph N/A   Haze
10:15 AM 77.9 °F - 71.8 °F 81% 29.87 in 10.0 mi NW 12.7 mph 17.3 mph N/A   Scattered Clouds
10:34 AM 77.2 °F - 70.9 °F 81% 29.87 in 10.0 mi NW 9.2 mph 19.6 mph N/A   Clear
10:55 AM 76.8 °F - 70.0 °F 79% 29.88 in 10.0 mi NW 9.2 mph 17.3 mph N/A   Clear
11:15 AM 76.1 °F - 69.1 °F 79% 29.87 in 10.0 mi NNW 13.8 mph 25.3 mph N/A   Clear
11:34 AM 76.3 °F - 68.7 °F 77% 29.88 in 10.0 mi NW 15.0 mph 20.7 mph N/A   Clear
11:55 AM 75.0 °F - 67.8 °F 78% 29.89 in 10.0 mi North 16.1 mph 20.7 mph N/A   Clear
12:15 PM 76.1 °F - 64.8 °F 68% 29.89 in 10.0 mi North 16.1 mph 24.2 mph N/A   Clear
12:34 PM 75.7 °F - 65.8 °F 71% 29.90 in 10.0 mi NNW 11.5 mph 20.7 mph N/A   Clear
12:55 PM 74.5 °F - 64.6 °F 71% 29.90 in 10.0 mi North 16.1 mph 25.3 mph N/A   Clear
1:14 PM 74.5 °F - 64.2 °F 70% 29.91 in 10.0 mi NNW 16.1 mph 25.3 mph N/A   Clear
1:35 PM 73.6 °F - 63.5 °F 71% 29.91 in 10.0 mi North 13.8 mph 25.3 mph N/A   Clear
1:55 PM 74.5 °F - 63.3 °F 68% 29.91 in 10.0 mi NNW 11.5 mph 19.6 mph N/A   Clear
2:14 PM 74.1 °F - 62.8 °F 68% 29.91 in 10.0 mi NNW 15.0 mph 20.7 mph N/A   Clear
2:35 PM 73.4 °F - 61.3 °F 66% 29.92 in 10.0 mi NNW 16.1 mph 25.3 mph N/A   Clear
2:55 PM 73.6 °F - 61.2 °F 65% 29.92 in 10.0 mi NNW 16.1 mph 25.3 mph N/A   Clear
3:14 PM 73.4 °F - 60.6 °F 64% 29.93 in 10.0 mi NNW 11.5 mph 20.7 mph N/A   Clear
3:35 PM 73.6 °F - 59.4 °F 61% 29.93 in 10.0 mi North 15.0 mph 23.0 mph N/A   Clear
3:54 PM 73.6 °F - 59.4 °F 61% 29.93 in 10.0 mi North 9.2 mph 25.3 mph N/A   Clear
4:15 PM 73.8 °F - 58.3 °F 58% 29.93 in 10.0 mi North 11.5 mph 25.3 mph N/A   Clear
4:34 PM 73.8 °F - 58.3 °F 58% 29.93 in 10.0 mi North 15.0 mph 23.0 mph N/A   Clear
4:55 PM 73.9 °F - 57.9 °F 57% 29.93 in 10.0 mi North 13.8 mph 17.3 mph N/A   Clear
5:15 PM 73.6 °F - 57.0 °F 56% 29.92 in 10.0 mi North 17.3 mph 23.0 mph N/A   Clear
5:35 PM 73.4 °F - 56.8 °F 56% 29.92 in 10.0 mi North 12.7 mph 20.7 mph N/A   Clear
5:55 PM 73.4 °F - 57.4 °F 57% 29.92 in 10.0 mi North 10.4 mph 17.3 mph N/A   Clear
6:15 PM 72.5 °F - 56.5 °F 57% 29.91 in 10.0 mi North 13.8 mph 23.0 mph N/A   Clear
6:35 PM 72.5 °F - 56.5 °F 57% 29.91 in 10.0 mi North 10.4 mph 20.7 mph N/A   Clear
6:55 PM 72.5 °F - 56.7 °F 57% 29.92 in 10.0 mi North 10.4 mph - N/A   Clear
7:14 PM 72.0 °F - 56.7 °F 58% 29.92 in 10.0 mi North 9.2 mph 16.1 mph N/A   Clear
7:35 PM 71.8 °F - 57.6 °F 61% 29.93 in 10.0 mi North 9.2 mph - N/A   Clear
7:55 PM 71.2 °F - 57.4 °F 61% 29.93 in 10.0 mi North 10.4 mph 17.3 mph N/A   Clear
8:14 PM 70.7 °F - 58.1 °F 64% 29.94 in 10.0 mi North 9.2 mph - N/A   Clear
8:35 PM 70.0 °F - 57.6 °F 65% 29.94 in 10.0 mi North 5.8 mph - N/A   Clear
8:54 PM 69.3 °F - 57.9 °F 67% 29.94 in 10.0 mi North 5.8 mph - N/A   Clear
9:15 PM 68.2 °F - 58.5 °F 71% 29.95 in 10.0 mi North 3.5 mph - N/A   Clear
9:35 PM 67.6 °F - 58.8 °F 73% 29.96 in 10.0 mi Calm Calm - N/A   Clear
9:54 PM 67.1 °F - 58.5 °F 74% 29.97 in 10.0 mi Calm Calm - N/A   Clear
10:15 PM 64.8 °F - 59.0 °F 82% 29.98 in 10.0 mi Calm Calm - N/A   Clear
10:34 PM 62.6 °F - 59.4 °F 89% 29.99 in 10.0 mi Calm Calm - N/A   Clear
10:55 PM 62.1 °F - 59.0 °F 90% 29.99 in 10.0 mi Calm Calm - N/A   Clear
11:15 PM 60.8 °F - 58.8 °F 93% 29.99 in 10.0 mi Calm Calm - N/A   Clear
11:34 PM 60.1 °F - 58.1 °F 93% 30.00 in 10.0 mi Calm Calm - N/A   Clear
11:55 PM 59.9 °F - 58.1 °F 94% 29.99 in 10.0 mi Calm Calm - N/A   Clear